| time (UTC) | temp C | wind direction | speed KPH | gust KPH | rain 1hr cm | rain 24hr cm | rain mn cm | humidity % | barometer mb |
| 20260504184840 | 12 | 243 | 3.2 | 9.7 | 0.00 | 0.00 | 0.00 | 41 | 1015.0 |
| 20260504183340 | 13 | 233 | 3.2 | 4.8 | 0.00 | 0.00 | 0.00 | 41 | 1015.1 |
| 20260504181840 | 13 | 233 | 3.2 | 8.0 | 0.00 | 0.00 | 0.00 | 41 | 1015.1 |
| 20260504180340 | 13 | 290 | 1.6 | 3.2 | 0.00 | 0.00 | 0.00 | 38 | 1015.0 |
| 20260504174840 | 13 | 246 | 0.0 | 1.6 | 0.00 | 0.00 | 0.00 | 39 | 1015.1 |
| 20260504173340 | 14 | 281 | 1.6 | 1.6 | 0.00 | 0.00 | 0.00 | 36 | 1015.0 |
| 20260504171840 | 13 | 261 | 3.2 | 4.8 | 0.00 | 0.00 | 0.00 | 40 | 1015.2 |
| 20260504170340 | 12 | 239 | 1.6 | 3.2 | 0.00 | 0.00 | 0.00 | 42 | 1015.1 |
| 20260504160340 | 11 | 154 | 1.6 | 3.2 | 0.00 | 0.00 | 0.00 | 46 | 1015.6 |
| 20260504150340 | 10 | 213 | 0.0 | 1.6 | 0.00 | 0.00 | 0.00 | 51 | 1015.9 |
| 20260504140310 | 8 | 76 | 1.6 | 3.2 | 0.00 | 0.00 | 0.00 | 57 | 1015.9 |
| 20260504130310 | 6 | 173 | 0.0 | 1.6 | 0.00 | 0.00 | 0.00 | 64 | 1015.4 |
| 20260504120310 | 6 | 150 | 1.6 | 4.8 | 0.00 | 0.00 | 0.00 | 62 | 1014.9 |
| 20260504110310 | 7 | 213 | 0.0 | 0.0 | 0.00 | 0.00 | 0.00 | 55 | 1015.0 |
| 20260504100310 | 8 | 156 | 9.7 | 11.3 | 0.00 | 0.00 | 0.00 | 49 | 1014.3 |
| 20260504081810 | 11 | 204 | 14.5 | 19.3 | 0.00 | 0.00 | 0.00 | 49 | 1011.3 |
| 20260504080310 | 6 | 241 | 1.6 | 3.2 | 0.00 | 0.00 | 0.00 | 60 | 1011.0 |
| 20260504070310 | 9 | 1 | 0.0 | 0.0 | 0.00 | 0.00 | 0.00 | 48 | 1009.2 |
| 20260504050310 | 11 | 128 | 0.0 | 0.0 | 0.00 | 0.00 | 0.00 | 36 | 1009.2 |
| 20260504044810 | 11 | 254 | 0.0 | 1.6 | 0.00 | 0.00 | 0.00 | 40 | 1009.2 |
| 20260504043310 | 12 | 232 | 0.0 | 0.0 | 0.00 | 0.00 | 0.00 | 40 | 1009.2 |
| 20260504041810 | 12 | 232 | 0.0 | 1.6 | 0.00 | 0.00 | 0.00 | 38 | 1009.0 |
| 20260504040310 | 13 | 232 | 0.0 | 0.0 | 0.00 | 0.00 | 0.00 | 35 | 1008.9 |
| 20260504034810 | 14 | 149 | 0.0 | 3.2 | 0.00 | 0.00 | 0.00 | 35 | 1008.7 |
| 20260504033310 | 15 | 101 | 3.2 | 4.8 | 0.00 | 0.00 | 0.00 | 34 | 1008.5 |
| 20260504031810 | 16 | 134 | 4.8 | 11.3 | 0.00 | 0.00 | 0.00 | 32 | 1008.4 |
| 20260504030310 | 16 | 129 | 8.0 | 9.7 | 0.00 | 0.00 | 0.00 | 32 | 1008.2 |
| 20260504024810 | 17 | 161 | 3.2 | 4.8 | 0.00 | 0.00 | 0.00 | 28 | 1008.1 |
| 20260504023310 | 17 | 155 | 1.6 | 4.8 | 0.00 | 0.00 | 0.00 | 29 | 1008.0 |
| 20260504021810 | 18 | 159 | 3.2 | 4.8 | 0.00 | 0.00 | 0.00 | 28 | 1007.9 |
| 20260504020310 | 20 | 145 | 3.2 | 11.3 | 0.00 | 0.00 | 0.00 | 25 | 1007.8 |
| 20260504014810 | 21 | 164 | 3.2 | 9.7 | 0.00 | 0.00 | 0.00 | 24 | 1007.8 |
| 20260504013310 | 21 | 153 | 4.8 | 9.7 | 0.00 | 0.00 | 0.00 | 22 | 1007.9 |
| 20260504011810 | 21 | 129 | 8.0 | 11.3 | 0.00 | 0.00 | 0.00 | 23 | 1008.0 |
| 20260504010310 | 22 | 118 | 9.7 | 11.3 | 0.00 | 0.00 | 0.00 | 25 | 1008.0 |
| 20260504004810 | 23 | 125 | 11.3 | 12.9 | 0.00 | 0.00 | 0.00 | 25 | 1008.1 |
| 20260504003310 | 23 | 131 | 4.8 | 14.5 | 0.00 | 0.00 | 0.00 | 26 | 1008.2 |
| 20260504001810 | 23 | 120 | 9.7 | 11.3 | 0.00 | 0.00 | 0.00 | 25 | 1008.3 |
| 20260504000310 | 23 | 154 | 9.7 | 11.3 | 0.00 | 0.00 | 0.00 | 24 | 1008.4 |
| 20260503234810 | 23 | 146 | 9.7 | 14.5 | 0.00 | 0.00 | 0.00 | 21 | 1008.4 |
| 20260503233310 | 23 | 160 | 11.3 | 22.5 | 0.00 | 0.00 | 0.00 | 21 | 1008.5 |
| 20260503231810 | 24 | 136 | 11.3 | 19.3 | 0.00 | 0.00 | 0.00 | 19 | 1008.6 |
| 20260503230310 | 24 | 118 | 4.8 | 19.3 | 0.00 | 0.00 | 0.00 | 20 | 1008.8 |
| 20260503224810 | 23 | 122 | 14.5 | 19.3 | 0.00 | 0.00 | 0.00 | 23 | 1009.1 |
| 20260503223310 | 24 | 187 | 4.8 | 4.8 | 0.00 | 0.00 | 0.00 | 18 | 1009.1 |
| 20260503221810 | 24 | 148 | 8.0 | 11.3 | 0.00 | 0.00 | 0.00 | 19 | 1009.3 |
| 20260503220310 | 23 | 145 | 9.7 | 14.5 | 0.00 | 0.00 | 0.00 | 22 | 1009.5 |
| 20260503214810 | 23 | 179 | 3.2 | 4.8 | 0.00 | 0.00 | 0.00 | 25 | 1009.7 |
| 20260503213310 | 23 | 159 | 1.6 | 8.0 | 0.00 | 0.00 | 0.00 | 24 | 1010.0 |
| 20260503211740 | 23 | 289 | 1.6 | 4.8 | 0.00 | 0.00 | 0.00 | 24 | 1010.2 |
| 20260503210240 | 23 | 45 | 4.8 | 8.0 | 0.00 | 0.00 | 0.00 | 26 | 1010.6 |
| 20260503204740 | 23 | 192 | 3.2 | 3.2 | 0.00 | 0.00 | 0.00 | 25 | 1010.8 |
| 20260503203210 | 23 | 92 | 4.8 | 9.7 | 0.00 | 0.00 | 0.00 | 24 | 1011.0 |
| 20260503201710 | 22 | 109 | 3.2 | 4.8 | 0.00 | 0.00 | 0.00 | 27 | 1011.1 |
| 20260503200140 | 23 | 290 | 9.7 | 11.3 | 0.00 | 0.00 | 0.00 | 26 | 1011.4 |
| 20260503194610 | 22 | 282 | 4.8 | 8.0 | 0.00 | 0.00 | 0.00 | 27 | 1011.7 |
| 20260503193110 | 22 | 87 | 1.6 | 4.8 | 0.00 | 0.00 | 0.00 | 27 | 1011.9 |
| 20260503191610 | 22 | 243 | 1.6 | 3.2 | 0.00 | 0.00 | 0.00 | 31 | 1012.1 |